Terminal Aerodrome Forecast
Issued by NWS Portland, ME

Home | Current Version | Previous Version | Text Only | Print | Product List | Glossary On
Versions: 1 2 3 4 5 6 7 8 9 10 11 12 13 14 15 16 17
346
FTUS41 KGYX 241503 AAA
TAFCON
TAF AMD
KCON 241503Z 2415/2512 VRB03KT P6SM -SHRA SCT009 OVC017
      TEMPO 2415/2418 2SM -SHRA BR OVC030
     FM241800 06006KT P6SM OVC025
     FM250300 00000KT 6SM BR OVC020=

USA.gov is the U.S. government's official web portal to all federal, state and local government web resources and services.